N9BID Weather Reports


time (UTC)temp
C
wind
direction
speed
KPH
gust
KPH
rain 1hr
cm
rain 24hr
cm
rain mn
cm
humidity
%
barometer
mb
20260906145636 22 206 3.2 6.4 0.00 0.00 0.00 79 1020.9
20260906145131 22 170 0.0 4.8 0.00 0.00 0.00 80 1020.9
20260906144631 22 157 3.2 3.2 0.00 0.00 0.00 81 1020.8
20260906144127 21 164 3.2 6.4 0.00 0.00 0.00 81 1020.9
20260906143626 21 152 1.6 1.6 0.00 0.00 0.00 83 1021.0
20260906143124 21 202 4.8 9.7 0.00 0.00 0.00 83 1021.1
20260906142622 21 160 1.6 1.6 0.00 0.00 0.00 84 1020.8
20260906142118 21 160 0.0 3.2 0.00 0.00 0.00 85 1020.9
20260906141616 21 164 1.6 3.2 0.00 0.00 0.00 85 1020.8
20260906141112 20 165 0.0 3.2 0.00 0.00 0.00 86 1020.9
20260906140611 20 160 1.6 3.2 0.00 0.00 0.00 87 1020.9
20260906140106 19 152 1.6 3.2 0.00 0.00 0.00 89 1021.0
20260906135603 18 119 0.0 6.4 0.00 0.00 0.00 92 1020.8
20260906135059 18 156 1.6 1.6 0.00 0.00 0.00 94 1020.8
20260906134554 18 153 0.0 1.6 0.00 0.00 0.00 94 1021.0
20260906134049 18 140 0.0 4.8 0.00 0.00 0.00 94 1020.7
20260906133545 18 83 3.2 4.8 0.00 0.00 0.00 94 1020.9
20260906133040 18 139 0.0 3.2 0.00 0.00 0.00 95 1020.8
20260906132535 18 178 0.0 3.2 0.00 0.00 0.00 96 1020.8
20260906132030 18 154 0.0 4.8 0.00 0.00 0.00 96 1020.9
20260906131526 18 106 1.6 4.8 0.00 0.00 0.00 96 1020.9
20260906131021 18 166 1.6 3.2 0.00 0.00 0.00 96 1020.8
20260906130520 17 137 0.0 1.6 0.00 0.00 0.00 97 1020.9
20260906130016 17 165 0.0 1.6 0.00 0.00 0.00 99 1021.0
20260906125513 17 167 0.0 0.0 0.00 0.00 0.00 99 1020.7
20260906125013 16 154 1.6 1.6 0.00 0.00 0.00 99 1020.8
20260906124508 16 145 0.0 0.0 0.00 0.00 0.00 99 1020.7
20260906124003 16 162 1.6 3.2 0.00 0.00 0.00 99 1020.8
20260906123456 16 108 1.6 3.2 0.00 0.00 0.00 99 1020.6
20260906122956 16 139 0.0 3.2 0.00 0.00 0.00 99 1020.4
20260906122451 15 95 0.0 1.6 0.00 0.00 0.00 99 1020.5
20260906121948 15 149 0.0 0.0 0.00 0.00 0.00 99 1020.3
20260906121444 15 162 0.0 0.0 0.00 0.00 0.00 99 1020.4
20260906120940 15 162 0.0 0.0 0.00 0.00 0.00 99 1020.3
20260906120435 15 159 0.0 0.0 0.00 0.00 0.00 99 1020.4
20260906115931 15 150 0.0 0.0 0.00 0.00 0.00 99 1020.5
20260906115426 15 136 0.0 0.0 0.00 0.00 0.00 99 1020.5
20260906114921 15 144 0.0 1.6 0.00 0.00 0.00 99 1020.5
20260906114420 15 87 0.0 0.0 0.00 0.00 0.00 99 1020.4
20260906113917 15 107 0.0 0.0 0.00 0.00 0.00 99 1020.5
20260906113415 15 143 0.0 0.0 0.00 0.00 0.00 99 1020.5
20260906112911 15 168 0.0 0.0 0.00 0.00 0.00 99 1020.4
20260906112406 15 168 0.0 0.0 0.00 0.00 0.00 99 1020.6
20260906111901 15 168 0.0 0.0 0.00 0.00 0.00 99 1020.3
20260906111401 15 168 0.0 0.0 0.00 0.00 0.00 99 1020.4
20260906110856 15 168 0.0 0.0 0.00 0.00 0.00 99 1019.9
20260906110351 15 166 0.0 0.0 0.00 0.00 0.00 99 1020.1
20260906105850 15 175 0.0 0.0 0.00 0.00 0.00 99 1020.2
20260906105346 15 159 0.0 0.0 0.00 0.00 0.00 99 1019.9
20260906104842 15 163 0.0 0.0 0.00 0.00 0.00 99 1019.8
20260906104340 16 159 0.0 0.0 0.00 0.00 0.00 99 1020.1
20260906103839 15 166 0.0 0.0 0.00 0.00 0.00 99 1019.9
20260906103337 15 172 0.0 0.0 0.00 0.00 0.00 99 1019.8
20260906102834 16 172 0.0 0.0 0.00 0.00 0.00 99 1020.0
20260906102332 16 166 0.0 0.0 0.00 0.00 0.00 99 1019.8
20260906101828 16 152 0.0 3.2 0.00 0.00 0.00 99 1019.6
20260906101323 16 155 0.0 3.2 0.00 0.00 0.00 99 1019.5
20260906100819 16 80 1.6 3.2 0.00 0.00 0.00 99 1019.3
20260906100317 16 80 0.0 1.6 0.00 0.00 0.00 99 1019.2
20260906095814 16 155 0.0 0.0 0.00 0.00 0.00 99 1019.2
20260906095309 16 149 0.0 0.0 0.00 0.00 0.00 99 1019.2
20260906094808 16 94 0.0 1.6 0.00 0.00 0.00 99 1019.0
20260906094303 16 160 0.0 0.0 0.00 0.00 0.00 99 1019.1
20260906093759 16 148 0.0 0.0 0.00 0.00 0.00 99 1019.3
20260906093254 16 157 0.0 0.0 0.00 0.00 0.00 99 1019.1
20260906092749 17 152 0.0 0.0 0.00 0.00 0.00 99 1019.3
20260906092244 17 133 0.0 1.6 0.00 0.00 0.00 99 1019.5
20260906091740 17 107 0.0 1.6 0.00 0.00 0.00 99 1019.4
20260906091235 17 165 0.0 0.0 0.00 0.00 0.00 99 1019.5
20260906090732 17 162 0.0 0.0 0.00 0.00 0.00 99 1019.8
20260906090231 17 146 0.0 0.0 0.00 0.00 0.00 99 1019.9
20260906085730 17 153 0.0 0.0 0.00 0.00 0.00 99 1019.8
20260906085229 17 150 0.0 0.0 0.00 0.00 0.00 99 1019.9
20260906084724 17 138 1.6 3.2 0.00 0.00 0.00 99 1019.6
20260906084225 17 149 0.0 3.2 0.00 0.00 0.00 99 1019.6
20260906083720 17 90 1.6 1.6 0.00 0.00 0.00 99 1019.8
20260906083215 17 169 0.0 0.0 0.00 0.00 0.00 99 1019.6
20260906082710 17 160 0.0 1.6 0.00 0.00 0.00 99 1019.8
20260906082205 17 140 1.6 1.6 0.00 0.00 0.00 99 1019.5
20260906081701 17 154 0.0 3.2 0.00 0.00 0.00 99 1019.6
20260906081156 17 165 0.0 0.0 0.00 0.00 0.00 99 1019.4
20260906080652 17 137 0.0 1.6 0.00 0.00 0.00 99 1019.5
20260906080148 17 160 0.0 1.6 0.00 0.00 0.00 99 1019.8
20260906075648 17 174 0.0 0.0 0.00 0.00 0.00 99 1019.4
20260906075142 17 175 0.0 0.0 0.00 0.00 0.00 99 1019.6
20260906074638 17 165 0.0 0.0 0.00 0.00 0.00 99 1019.5
20260906074137 17 145 0.0 0.0 0.00 0.00 0.00 99 1019.8
20260906073631 17 172 0.0 0.0 0.00 0.00 0.00 99 1019.6
20260906073127 17 168 0.0 0.0 0.00 0.00 0.00 99 1019.2
20260906072622 17 158 0.0 0.0 0.00 0.00 0.00 99 1019.4
20260906072118 17 168 0.0 0.0 0.00 0.00 0.00 99 1019.9
20260906071614 17 168 0.0 0.0 0.00 0.00 0.00 99 1019.8
20260906071109 17 171 0.0 0.0 0.00 0.00 0.00 99 1019.8
20260906070606 17 165 0.0 0.0 0.00 0.00 0.00 99 1019.6
20260906070100 17 174 0.0 0.0 0.00 0.00 0.00 99 1019.8
20260906065600 17 182 0.0 1.6 0.00 0.00 0.00 99 1020.0
20260906065056 17 168 0.0 0.0 0.00 0.00 0.00 99 1020.0
20260906064551 17 172 0.0 0.0 0.00 0.00 0.00 99 1020.1
20260906064046 17 172 0.0 0.0 0.00 0.00 0.00 99 1020.1
20260906063541 17 171 0.0 0.0 0.00 0.00 0.00 99 1020.0
20260906063032 17 167 0.0 0.0 0.00 0.00 0.00 99 1019.9
20260906062527 17 150 0.0 0.0 0.00 0.00 0.00 99 1019.6
20260906062026 17 162 0.0 1.6 0.00 0.00 0.00 99 1019.6
20260906061524 17 172 0.0 0.0 0.00 0.00 0.00 99 1020.0
20260906061022 17 172 0.0 0.0 0.00 0.00 0.00 99 1020.0
20260906060519 17 172 0.0 0.0 0.00 0.00 0.00 99 1020.1
20260906060016 17 172 0.0 0.0 0.00 0.00 0.00 99 1019.8
20260906055512 17 172 0.0 0.0 0.00 0.00 0.00 99 1019.6
20260906055007 17 169 0.0 0.0 0.00 0.00 0.00 99 1019.5
20260906054507 17 169 0.0 0.0 0.00 0.00 0.00 99 1019.5
20260906054002 17 161 0.0 0.0 0.00 0.00 0.00 99 1019.8
20260906053459 17 170 0.0 0.0 0.00 0.00 0.00 99 1019.5
20260906052954 17 170 0.0 0.0 0.00 0.00 0.00 99 1019.6
20260906052450 17 170 0.0 0.0 0.00 0.00 0.00 99 1019.9
20260906051947 17 170 0.0 0.0 0.00 0.00 0.00 99 1019.8
20260906051442 17 175 0.0 0.0 0.00 0.00 0.00 99 1019.4
20260906050937 17 175 0.0 0.0 0.00 0.00 0.00 99 1019.4
20260906050437 17 171 0.0 0.0 0.00 0.00 0.00 99 1019.5
20260906045936 17 168 0.0 0.0 0.00 0.00 0.00 99 1019.4
20260906045435 17 164 0.0 0.0 0.00 0.00 0.00 99 1019.5
20260906044932 17 175 0.0 0.0 0.00 0.00 0.00 99 1019.6
20260906044431 17 176 0.0 0.0 0.00 0.00 0.00 99 1019.6
20260906043927 17 177 0.0 0.0 0.00 0.00 0.00 99 1019.5
20260906043423 17 175 0.0 0.0 0.00 0.00 0.00 99 1019.3
20260906042918 17 171 0.0 0.0 0.00 0.00 0.00 99 1019.2
20260906042417 17 165 0.0 0.0 0.00 0.00 0.00 99 1019.3
20260906041912 17 165 0.0 0.0 0.00 0.00 0.00 99 1019.3
20260906041409 17 165 0.0 0.0 0.00 0.00 0.00 99 1019.1
20260906040903 17 149 0.0 0.0 0.00 0.00 0.00 99 1019.1
20260906040358 17 175 0.0 1.6 0.00 0.00 0.00 99 1018.8
20260906035853 17 175 0.0 0.0 0.00 0.00 0.00 99 1019.0
20260906035349 17 153 0.0 0.0 0.00 0.00 0.00 99 1019.1
20260906034843 17 171 0.0 0.0 0.00 0.00 0.00 99 1019.0
20260906034338 17 171 0.0 0.0 0.00 0.00 0.00 99 1019.0
20260906033834 17 171 0.0 0.0 0.00 0.00 0.00 99 1019.1
20260906033333 17 171 0.0 0.0 0.00 0.00 0.00 99 1018.7
20260906032830 17 171 0.0 0.0 0.00 0.00 0.00 99 1018.6
20260906032326 17 171 0.0 0.0 0.00 0.00 0.00 99 1018.5
20260906031821 18 168 0.0 0.0 0.00 0.00 0.00 99 1018.6
20260906031316 17 168 0.0 0.0 0.00 0.00 0.00 99 1018.4
20260906030816 17 175 0.0 0.0 0.00 0.00 0.00 99 1018.7
20260906030311 18 175 0.0 0.0 0.00 0.00 0.00 99 1018.6
20260906025811 18 174 0.0 0.0 0.00 0.00 0.00 99 1018.6
20260906025306 18 175 0.0 0.0 0.00 0.00 0.00 99 1018.4
20260906024804 18 175 0.0 0.0 0.00 0.00 0.00 99 1018.3
20260906024303 18 182 0.0 1.6 0.00 0.00 0.00 99 1018.1
20260906023759 18 181 0.0 1.6 0.00 0.00 0.00 99 1018.2
20260906023254 18 183 0.0 0.0 0.00 0.00 0.00 99 1018.1
20260906022750 18 177 0.0 0.0 0.00 0.00 0.00 99 1018.0
20260906022245 18 176 0.0 0.0 0.00 0.00 0.00 99 1018.0
20260906021741 19 170 0.0 0.0 0.00 0.00 0.00 99 1017.9
20260906021240 19 169 0.0 1.6 0.00 0.00 0.00 99 1017.9
20260906020734 20 173 0.0 0.0 0.00 0.00 0.00 99 1017.8
20260906020229 20 174 0.0 0.0 0.00 0.00 0.00 99 1017.7
20260906015723 20 156 0.0 3.2 0.00 0.00 0.00 99 1018.0
20260906015221 20 163 0.0 1.6 0.00 0.00 0.00 99 1017.9
20260906014717 20 174 0.0 0.0 0.00 0.00 0.00 99 1017.9
20260906014212 20 169 0.0 0.0 0.00 0.00 0.00 99 1017.9
20260906013708 20 164 0.0 0.0 0.00 0.00 0.00 98 1017.6
20260906013209 20 156 0.0 0.0 0.00 0.00 0.00 98 1017.6
20260906012704 20 165 0.0 0.0 0.00 0.00 0.00 98 1017.7
20260906012203 20 163 0.0 0.0 0.00 0.00 0.00 98 1017.6
20260906011659 20 150 0.0 0.0 0.00 0.00 0.00 97 1017.3
20260906011154 20 172 0.0 0.0 0.00 0.00 0.00 97 1017.4
20260906010649 21 175 0.0 0.0 0.00 0.00 0.00 96 1017.6
20260906010145 21 174 0.0 0.0 0.00 0.00 0.00 95 1017.2
20260906005645 21 166 0.0 0.0 0.00 0.00 0.00 95 1017.3
20260906005144 21 164 0.0 3.2 0.00 0.00 0.00 94 1017.2
20260906004643 21 159 0.0 0.0 0.00 0.00 0.00 94 1017.3
20260906004138 21 162 0.0 0.0 0.00 0.00 0.00 93 1017.4
20260906003633 22 162 0.0 0.0 0.00 0.00 0.00 92 1017.5
20260906003129 22 163 0.0 1.6 0.00 0.00 0.00 92 1017.3
20260906002624 22 166 0.0 1.6 0.00 0.00 0.00 91 1017.5
20260906002119 22 178 0.0 1.6 0.00 0.00 0.00 90 1017.6
20260906001615 22 156 1.6 1.6 0.00 0.00 0.00 89 1017.3
20260906001114 23 165 0.0 0.0 0.00 0.00 0.00 87 1017.2
20260906000611 23 164 0.0 1.6 0.00 0.00 0.00 86 1017.2
20260906000106 23 169 0.0 0.0 0.00 0.00 0.00 83 1017.1
20260905235604 23 168 0.0 1.6 0.00 0.00 0.00 82 1017.1
20260905235100 24 157 0.0 1.6 0.00 0.00 0.00 81 1016.8
20260905234555 24 168 0.0 0.0 0.00 0.00 0.00 80 1017.2
20260905234050 25 163 1.6 1.6 0.00 0.00 0.00 78 1017.4
20260905233544 25 170 0.0 0.0 0.00 0.00 0.00 77 1017.3
20260905233039 25 148 1.6 1.6 0.00 0.00 0.00 78 1017.3
20260905232534 25 167 0.0 1.6 0.00 0.00 0.00 76 1017.5
20260905232030 25 154 0.0 1.6 0.00 0.00 0.00 76 1017.5
20260905231525 25 80 1.6 3.2 0.00 0.00 0.00 75 1017.3
20260905231021 25 164 1.6 3.2 0.00 0.00 0.00 76 1017.5
20260905230520 25 164 1.6 3.2 0.00 0.00 0.00 77 1017.5
20260905230019 25 167 0.0 1.6 0.00 0.00 0.00 75 1017.6
20260905225514 25 123 1.6 4.8 0.00 0.00 0.00 77 1017.5
20260905225009 25 115 3.2 9.7 0.00 0.00 0.00 78 1017.7
20260905224504 25 51 1.6 4.8 0.00 0.00 0.00 76 1017.5
20260905224003 25 157 1.6 4.8 0.00 0.00 0.00 75 1017.6
20260905223501 25 62 6.4 6.4 0.00 0.00 0.00 75 1017.4
20260905222956 25 123 1.6 1.6 0.00 0.00 0.00 76 1017.7
20260905222455 25 125 1.6 4.8 0.00 0.00 0.00 76 1017.6
20260905221951 25 182 1.6 4.8 0.00 0.00 0.00 76 1017.7
20260905221447 25 78 3.2 4.8 0.00 0.00 0.00 76 1017.7
20260905220943 25 27 1.6 3.2 0.00 0.00 0.00 74 1017.6
20260905220439 25 139 1.6 1.6 0.00 0.00 0.00 76 1017.8
20260905215938 25 333 1.6 3.2 0.00 0.00 0.00 78 1017.6
20260905215433 25 272 6.4 9.7 0.00 0.00 0.00 75 1017.6
20260905214930 25 329 1.6 3.2 0.00 0.00 0.00 75 1017.8
20260905214425 25 187 1.6 1.6 0.00 0.00 0.00 76 1017.5
20260905213920 25 33 3.2 4.8 0.00 0.00 0.00 77 1017.6
20260905213416 25 342 1.6 4.8 0.00 0.00 0.00 77 1017.7
20260905212912 25 71 3.2 4.8 0.00 0.00 0.00 79 1017.6
20260905212407 24 12 3.2 4.8 0.00 0.00 0.00 80 1017.7
20260905211905 23 62 3.2 3.2 0.00 0.00 0.00 81 1017.9
20260905211401 24 158 1.6 3.2 0.00 0.00 0.00 82 1017.7
20260905210857 24 49 3.2 4.8 0.00 0.00 0.00 81 1017.9
20260905210357 23 116 1.6 1.6 0.00 0.00 0.00 83 1017.9
20260905205856 23 91 3.2 4.8 0.00 0.00 0.00 83 1018.2
20260905205351 23 5 4.8 6.4 0.00 0.00 0.00 83 1018.0
20260905204850 23 48 3.2 6.4 0.00 0.00 0.00 84 1018.0
20260905204346 24 352 6.4 6.4 0.00 0.00 0.00 83 1018.1
20260905203844 23 80 3.2 3.2 0.00 0.00 0.00 84 1018.0
20260905203341 23 71 3.2 3.2 0.00 0.00 0.00 84 1017.9
20260905202836 23 8 3.2 6.4 0.00 0.00 0.00 84 1018.1
20260905202331 24 159 3.2 4.8 0.00 0.00 0.00 85 1018.1
20260905201822 23 154 0.0 3.2 0.00 0.00 0.00 86 1018.1
20260905201317 23 144 1.6 4.8 0.00 0.00 0.00 85 1018.1
20260905200816 23 98 3.2 4.8 0.00 0.00 0.00 85 1018.2
20260905200312 23 154 1.6 4.8 0.00 0.00 0.00 84 1018.2
20260905195810 23 155 0.0 1.6 0.00 0.00 0.00 84 1018.1
20260905195306 23 66 1.6 3.2 0.00 0.00 0.00 85 1018.4
20260905194802 23 97 3.2 4.8 0.00 0.00 0.00 85 1018.0
20260905194301 23 121 1.6 3.2 0.00 0.00 0.00 85 1017.9
20260905193800 23 81 1.6 4.8 0.00 0.00 0.00 83 1017.9
20260905193255 24 154 1.6 1.6 0.00 0.00 0.00 84 1018.2
20260905192750 23 155 0.0 1.6 0.00 0.00 0.00 84 1017.9
20260905192247 23 155 0.0 1.6 0.00 0.00 0.00 84 1018.1
20260905191746 23 110 3.2 4.8 0.00 0.00 0.00 84 1017.7
20260905191244 23 147 1.6 4.8 0.00 0.00 0.00 86 1018.1
20260905190743 23 129 3.2 3.2 0.00 0.00 0.00 84 1018.2
20260905190243 23 213 1.6 1.6 0.00 0.00 0.00 83 1018.3
20260905185741 23 184 1.6 3.2 0.00 0.00 0.00 84 1018.1
20260905185236 23 157 1.6 1.6 0.00 0.00 0.00 83 1018.2
20260905184730 23 105 1.6 3.2 0.00 0.00 0.00 84 1018.0
20260905184230 23 150 0.0 1.6 0.00 0.00 0.00 85 1018.3
20260905183723 23 183 1.6 3.2 0.00 0.00 0.00 85 1018.2
20260905183219 23 148 0.0 6.4 0.00 0.00 0.00 85 1018.3
20260905182718 23 154 0.0 3.2 0.00 0.00 0.00 84 1018.0
20260905182218 23 138 1.6 3.2 0.00 0.00 0.00 85 1018.1
20260905181714 23 151 1.6 3.2 0.00 0.00 0.00 85 1017.9
20260905181212 23 149 1.6 4.8 0.00 0.00 0.00 86 1018.2
20260905180707 23 159 1.6 3.2 0.00 0.00 0.00 85 1018.3
20260905180203 23 150 1.6 4.8 0.00 0.00 0.00 86 1018.3
20260905175702 23 160 0.0 1.6 0.00 0.00 0.00 86 1018.5
20260905175157 23 48 1.6 1.6 0.00 0.00 0.00 86 1018.3
20260905174653 23 82 3.2 3.2 0.00 0.00 0.00 87 1018.2
20260905174148 22 50 6.4 9.7 0.00 0.00 0.00 87 1018.3
20260905173644 22 183 1.6 1.6 0.00 0.00 0.00 89 1018.2
20260905173140 22 120 1.6 4.8 0.00 0.00 0.00 91 1018.5
20260905172638 22 91 3.2 4.8 0.00 0.00 0.00 90 1018.5
20260905172133 22 152 0.0 1.6 0.00 0.00 0.00 90 1018.5
20260905171630 22 246 1.6 3.2 0.00 0.00 0.00 90 1018.7
20260905171125 22 65 3.2 4.8 0.00 0.00 0.00 89 1018.8
20260905170622 22 156 0.0 1.6 0.00 0.00 0.00 90 1018.6
20260905170117 22 159 1.6 1.6 0.00 0.00 0.00 89 1018.6
20260905165611 22 158 1.6 1.6 0.00 0.00 0.00 91 1018.7
20260905165107 22 153 0.0 3.2 0.00 0.00 0.00 92 1018.6
20260905164601 22 104 1.6 1.6 0.00 0.00 0.00 92 1018.7
20260905164056 22 152 0.0 1.6 0.00 0.00 0.00 92 1018.6
20260905163552 21 160 1.6 4.8 0.00 0.00 0.00 93 1018.6
20260905163048 21 151 0.0 3.2 0.00 0.00 0.00 94 1018.5
20260905162544 21 155 0.0 4.8 0.00 0.00 0.00 94 1018.7
20260905162043 21 174 3.2 4.8 0.00 0.00 0.00 92 1018.8
20260905161543 21 153 1.6 3.2 0.00 0.00 0.00 93 1018.7
20260905161041 21 81 1.6 3.2 0.00 0.00 0.00 93 1018.8
20260905160539 21 152 3.2 4.8 0.00 0.00 0.00 93 1018.8
20260905160034 21 58 3.2 4.8 0.00 0.00 0.00 94 1018.6
20260905155534 21 152 0.0 3.2 0.00 0.00 0.00 94 1018.6
20260905155032 21 148 0.0 0.0 0.00 0.00 0.00 95 1018.6
20260905154528 21 26 1.6 3.2 0.00 0.00 0.00 94 1018.6
20260905154023 21 104 4.8 4.8 0.00 0.00 0.00 94 1018.3
20260905153519 21 162 3.2 3.2 0.00 0.00 0.00 95 1018.3
20260905153019 21 123 3.2 3.2 0.00 0.00 0.00 96 1018.6
20260905152519 21 159 1.6 1.6 0.00 0.00 0.00 97 1018.3
20260905152014 20 52 6.4 6.4 0.00 0.00 0.00 98 1018.6
20260905151509 20 65 1.6 3.2 0.00 0.00 0.00 98 1018.3
20260905151005 20 151 1.6 4.8 0.00 0.00 0.00 99 1018.0
20260905150459 20 50 3.2 6.4 0.00 0.00 0.00 99 1018.1
20260905145956 20 159 1.6 4.8 0.00 0.00 0.00 99 1018.2